Weather History for Alpine, TX

Change the Weather History Date:

Tuesday, May 21, 2013

  Actual Average (KMRF) Record (KMRF)
Temperature  
Mean Temperature 72 °F -  
Max Temperature 87 °F 83 °F 95 °F (2006)
Min Temperature 59 °F 51 °F 41 °F (2011)
Cooling Degree Days 8    
Growing Degree Days 22 (Base 50)    
Moisture  
Dew Point 24 °F    
Average Humidity 18    
Maximum Humidity 29    
Minimum Humidity 7    
Precipitation  
Precipitation 0.00 in - - ()
Sea Level Pressure  
Sea Level Pressure 30.01 in    
Wind  
Wind Speed 9 mph (NNW)    
Max Wind Speed 15 mph    
Max Gust Speed 23 mph    
Visibility 10 miles    
Events      
Averages and records for this station are not official NWS values.
T = Trace of Precipitation, MM = Missing Value Source: NWS Daily Summary

Daily Weather History Graph

Daily Weather History Graph

Search for Another Location

Airport:

Trip Planner

Search our weather history database for the weather conditions in past years. The results will help you decide how hot, cold, wet, or windy it might be!

Date:

Astronomy

May. 21, 2013 Rise Set
Actual Time 6:57 AM CDT 8:45 PM CDT
Civil Twilight 6:30 AM CDT 9:12 PM CDT
Nautical Twilight 5:58 AM CDT 9:44 PM CDT
Astronomical Twilight 5:24 AM CDT 10:18 PM CDT
Moon 5:15 PM CDT (5/21) 4:10 AM CDT (5/21)
Length of Visible Light 14h 42m
Length of Day
13h 48m
Waxing Gibbous, 84% of the Moon is Illuminated
May 21
Waxing Gibbous
May 24
Full
May 31
Last Quarter
Jun 8
New
Jun 16
First Quarter

Hourly Weather History & Observations

Time (CDT) Temp. Dew Point Humidity Pressure Visibility Wind Dir Wind Speed Gust Speed Precip Events Conditions
12:15 AM 67.3 °F 20.3 °F 17% 29.97 in 10.0 mi SSW 8.1 mph - N/A   Clear
12:35 AM 65.3 °F 20.1 °F 18% 29.97 in 10.0 mi SSW 9.2 mph - N/A   Clear
12:55 AM 63.5 °F 20.1 °F 19% 29.96 in 10.0 mi SW 10.4 mph - N/A   Clear
1:15 AM 64.4 °F 19.9 °F 18% 29.96 in 10.0 mi SSW 9.2 mph - N/A   Clear
1:35 AM 60.4 °F 20.1 °F 21% 29.96 in 10.0 mi SSW 4.6 mph - N/A   Clear
1:55 AM 60.8 °F 20.1 °F 21% 29.96 in 10.0 mi SSW 5.8 mph - N/A   Clear
2:15 AM 60.1 °F 20.1 °F 21% 29.95 in 10.0 mi Calm Calm - N/A   Clear
2:35 AM 61.7 °F 20.5 °F 20% 29.94 in 10.0 mi WSW 9.2 mph - N/A   Clear
2:55 AM 61.2 °F 21.0 °F 21% 29.94 in 10.0 mi WSW 10.4 mph - N/A   Clear
3:15 AM 65.3 °F 20.1 °F 18% 29.93 in 10.0 mi WSW 10.4 mph - N/A   Clear
3:35 AM 70.7 °F 18.7 °F 14% 29.93 in 10.0 mi WSW 12.7 mph - N/A   Clear
3:55 AM 72.3 °F 18.1 °F 13% 29.93 in 10.0 mi WSW 12.7 mph - N/A   Clear
4:15 AM 75.4 °F 17.2 °F 11% 29.93 in 10.0 mi NW 15.0 mph 21.9 mph N/A   Clear
4:35 AM 73.6 °F 18.5 °F 12% 29.94 in 10.0 mi NW 13.8 mph - N/A   Clear
4:55 AM 73.2 °F 20.3 °F 14% 29.95 in 10.0 mi NW 13.8 mph - N/A   Clear
5:15 AM 73.2 °F 21.0 °F 14% 29.96 in 10.0 mi NW 15.0 mph 19.6 mph N/A   Clear
5:35 AM 71.8 °F 21.2 °F 15% 29.97 in 10.0 mi WNW 10.4 mph - N/A   Clear
5:55 AM 71.4 °F 21.4 °F 15% 29.98 in 10.0 mi NW 5.8 mph - N/A   Clear
6:15 AM 67.5 °F 21.6 °F 18% 30.00 in 10.0 mi NE 10.4 mph - N/A   Clear
6:35 AM 65.5 °F 20.3 °F 18% 30.01 in 10.0 mi North 11.5 mph - N/A   Clear
6:55 AM 65.5 °F 24.3 °F 21% 30.03 in 10.0 mi North 11.5 mph - N/A   Clear
7:15 AM 64.4 °F 25.0 °F 22% 30.04 in 10.0 mi North 11.5 mph - N/A   Clear
7:35 AM 62.8 °F 25.5 °F 24% 30.06 in 10.0 mi NE 5.8 mph - N/A   Clear
7:55 AM 65.8 °F 26.8 °F 23% 30.07 in 10.0 mi North 8.1 mph - N/A   Clear
8:15 AM 68.0 °F 27.3 °F 22% 30.07 in 10.0 mi NNE 6.9 mph - N/A   Clear
8:35 AM 69.8 °F 27.3 °F 20% 30.07 in 10.0 mi NNE 11.5 mph - N/A   Clear
9:15 AM 72.0 °F 27.1 °F 19% 30.07 in 10.0 mi North 10.4 mph - N/A   Clear
9:35 AM 72.5 °F 27.1 °F 19% 30.07 in 10.0 mi North 10.4 mph - N/A   Clear
9:55 AM 73.4 °F 27.9 °F 18% 30.07 in 10.0 mi North 8.1 mph - N/A   Clear
10:15 AM 74.1 °F 27.9 °F 18% 30.06 in 10.0 mi North 9.2 mph 16.1 mph N/A   Clear
10:35 AM 75.4 °F 27.7 °F 17% 30.07 in 10.0 mi North 6.9 mph 18.4 mph N/A   Clear
10:55 AM 76.5 °F 27.3 °F 16% 30.07 in 10.0 mi NNE 11.5 mph - N/A   Clear
11:15 AM 77.0 °F 28.0 °F 17% 30.07 in 10.0 mi NNE 10.4 mph - N/A   Clear
11:35 AM 77.2 °F 30.4 °F 18% 30.07 in 10.0 mi NNE 9.2 mph - N/A   Clear
11:55 AM 78.6 °F 30.4 °F 17% 30.07 in 10.0 mi North 12.7 mph 17.3 mph N/A   Clear
12:15 PM 79.0 °F 31.3 °F 18% 30.07 in 10.0 mi North 9.2 mph - N/A   Clear
12:35 PM 80.6 °F 25.7 °F 13% 30.06 in 10.0 mi West 4.6 mph 20.7 mph N/A   Clear
1:15 PM 82.6 °F 25.2 °F 12% 30.04 in 10.0 mi WNW 12.7 mph 21.9 mph N/A   Clear
2:35 PM 85.3 °F 15.6 °F 7% 30.04 in 10.0 mi NW 12.7 mph 19.6 mph N/A   Clear
3:35 PM 84.4 °F 16.0 °F 8% 30.03 in 10.0 mi Calm Calm - N/A   Clear
3:55 PM 85.3 °F 16.9 °F 8% 30.01 in 10.0 mi North 12.7 mph 17.3 mph N/A   Clear
4:35 PM 86.0 °F 17.2 °F 8% 30.00 in 10.0 mi NNE 5.8 mph 18.4 mph N/A   Clear
5:35 PM 84.9 °F 25.0 °F 11% 29.99 in 10.0 mi ENE 8.1 mph 16.1 mph N/A   Clear
5:55 PM 84.6 °F 28.9 °F 13% 29.98 in 10.0 mi ENE 11.5 mph 16.1 mph N/A   Clear
6:15 PM 84.2 °F 29.8 °F 14% 29.98 in 10.0 mi East 13.8 mph - N/A   Clear
6:35 PM 82.8 °F 30.0 °F 15% 29.99 in 10.0 mi East 13.8 mph 23.0 mph N/A   Clear
6:55 PM 82.2 °F 29.3 °F 15% 29.99 in 10.0 mi NE 8.1 mph 16.1 mph N/A   Clear
7:15 PM 82.0 °F 28.6 °F 14% 29.99 in 10.0 mi NE 9.2 mph - N/A   Clear
7:35 PM 81.5 °F 28.4 °F 14% 29.99 in 10.0 mi ENE 8.1 mph - N/A   Clear
7:55 PM 80.6 °F 28.8 °F 15% 30.00 in 10.0 mi ENE 10.4 mph - N/A   Clear
8:15 PM 79.0 °F 28.2 °F 16% 30.00 in 10.0 mi ENE 6.9 mph - N/A   Clear
8:35 PM 76.5 °F 28.0 °F 17% 30.00 in 10.0 mi East 5.8 mph - N/A   Clear
8:55 PM 74.8 °F 27.9 °F 18% 30.01 in 10.0 mi East 3.5 mph - N/A   Clear
9:15 PM 73.8 °F 27.5 °F 18% 30.02 in 10.0 mi Calm Calm - N/A   Clear
9:35 PM 66.2 °F 26.6 °F 23% 30.03 in 10.0 mi SSW 4.6 mph - N/A   Clear
9:55 PM 63.7 °F 27.5 °F 25% 30.03 in 10.0 mi SW 4.6 mph - N/A   Clear
10:15 PM 61.9 °F 27.5 °F 27% 30.04 in 10.0 mi WSW 3.5 mph - N/A   Clear
10:35 PM 62.6 °F 27.3 °F 26% 30.04 in 10.0 mi West 3.5 mph - N/A   Clear
10:55 PM 62.1 °F 27.5 °F 27% 30.05 in 10.0 mi WSW 3.5 mph - N/A   Clear
11:15 PM 61.2 °F 27.9 °F 28% 30.05 in 10.0 mi West 5.8 mph - N/A   Clear
11:35 PM 59.9 °F 27.1 °F 29% 30.05 in 10.0 mi South 4.6 mph - N/A   Clear
11:55 PM 59.4 °F 27.1 °F 29% 30.05 in 10.0 mi South 5.8 mph - N/A   Clear